W5CGC Weather Reports


Display with metric or nautical units.
time (UTC)temp
F
wind
direction
speed
MPH
gust
MPH
rain 1hr
in
rain 24hr
in
rain mn
in
humidity
%
barometer
mb
20170723063606 86 255 0.0 7.0 0.00 0.00 0.00 67 1010.6
20170723062056 86 228 2.0 6.0 0.00 0.00 0.00 66 1010.9
20170723060554 87 211 2.0 7.0 0.00 0.00 0.00 65 1011.2
20170723055356 87 205 2.0 5.0 0.00 0.00 0.00 64 1011.1
20170723053556 87 238 1.0 6.0 0.00 0.00 0.00 64 1011.2
20170723052049 87 195 0.0 5.0 0.00 0.00 0.00 63 1011.3
20170723050545 87 224 0.0 2.0 0.00 0.00 0.00 63 1011.2
20170723045343 88 212 0.0 2.0 0.00 0.00 0.00 62 1011.2
20170723043546 88 233 0.0 2.0 0.00 0.00 0.00 61 1011.1
20170723042046 88 213 0.0 4.0 0.00 0.00 0.00 61 1011.1
20170723040542 89 224 0.0 2.0 0.00 0.00 0.00 61 1011.0
20170723035341 89 203 1.0 4.0 0.00 0.01 0.00 60 1010.8
20170723033542 90 129 1.0 6.0 0.00 0.01 0.00 59 1010.6
20170723032040 90 243 1.0 6.0 0.00 0.01 0.00 59 1010.6
20170723030541 90 194 2.0 8.0 0.00 0.01 0.00 59 1010.4
20170723025340 91 208 1.0 5.0 0.00 0.01 0.00 58 1010.1
20170723023540 92 225 1.0 7.0 0.00 0.01 0.00 57 1009.9
20170723022039 92 238 3.0 9.0 0.00 0.01 0.00 55 1009.7
20170723020538 92 214 0.0 4.0 0.00 0.01 0.00 54 1009.6
20170723015339 93 224 0.0 6.0 0.00 0.02 0.00 53 1009.3
20170723013540 93 208 1.0 3.0 0.00 0.02 0.00 52 1009.2
20170723012047 94 142 0.0 4.0 0.00 0.02 0.00 51 1009.1
20170723010538 94 190 0.0 10.0 0.00 0.02 0.00 50 1008.8
20170723005337 95 101 1.0 5.0 0.00 0.02 0.00 49 1008.7
20170723003536 96 84 1.0 8.0 0.00 0.02 0.00 48 1008.6
20170723002034 97 184 1.0 5.0 0.00 0.02 0.00 48 1008.5
20170723000534 98 212 3.0 8.0 0.00 0.02 0.00 46 1008.5
20170722235334 100 119 1.0 8.0 0.00 0.02 0.00 45 1008.4
20170722233538 100 173 2.0 12.0 0.00 0.02 0.00 43 1008.5
20170722232040 101 113 1.0 6.0 0.00 0.02 0.00 42 1008.6
20170722230536 100 216 2.0 7.0 0.00 0.02 0.00 43 1008.6
20170722225332 101 135 6.0 11.0 0.00 0.02 0.00 43 1008.6
20170722223532 101 225 2.0 5.0 0.00 0.02 0.00 42 1008.7
20170722222033 101 209 3.0 7.0 0.00 0.02 0.00 43 1008.8
20170722220533 102 134 1.0 9.0 0.00 0.02 0.00 43 1009.1
20170722215329 101 221 2.0 9.0 0.00 0.02 0.00 44 1009.4
20170722213524 102 211 1.0 6.0 0.00 0.02 0.00 44 1009.5
20170722212024 101 243 1.0 10.0 0.00 0.02 0.00 44 1009.9
20170722210536 100 181 1.0 8.0 0.00 0.02 0.00 46 1010.0
20170722205321 100 177 1.0 6.0 0.00 0.02 0.00 46 1010.2
20170722203529 100 155 3.0 8.0 0.00 0.02 0.00 45 1010.4
20170722202021 99 225 4.0 8.0 0.00 0.02 0.00 48 1010.5
20170722200519 100 184 4.0 13.0 0.00 0.02 0.00 45 1010.6
20170722195316 101 203 1.0 10.0 0.00 0.02 0.00 47 1010.6
20170722193523 100 208 3.0 7.0 0.00 0.02 0.00 46 1010.8
20170722192018 99 245 5.0 10.0 0.00 0.02 0.00 49 1011.0
20170722190518 100 225 1.0 8.0 0.00 0.02 0.00 49 1011.2
20170722185308 99 169 1.0 6.0 0.00 0.02 0.00 51 1011.4
20170722183508 98 198 3.0 10.0 0.00 0.02 0.00 51 1011.6
20170722182005 98 165 1.0 15.0 0.00 0.02 0.00 53 1011.7
20170722180503 98 195 1.0 7.0 0.00 0.02 0.00 53 1012.0
20170722175300 98 155 1.0 8.0 0.00 0.02 0.00 51 1012.3
20170722173458 98 129 5.0 9.0 0.00 0.02 0.00 51 1012.5
20170722171953 96 221 1.0 9.0 0.00 0.02 0.00 54 1012.4
20170722170455 96 195 4.0 9.0 0.00 0.02 0.00 55 1012.6
20170722165248 95 212 2.0 8.0 0.00 0.02 0.00 56 1012.7
20170722163452 95 218 2.0 8.0 0.00 0.02 0.00 57 1012.8
20170722161942 94 132 1.0 8.0 0.00 0.02 0.00 58 1012.8
20170722160444 93 262 2.0 7.0 0.00 0.02 0.00 60 1012.9
20170722155237 92 212 2.0 9.0 0.00 0.02 0.00 61 1013.0
20170722153434 92 200 3.0 6.0 0.00 0.02 0.00 61 1013.1
20170722151934 91 201 2.0 6.0 0.00 0.02 0.00 63 1013.0
20170722150427 90 194 2.0 6.0 0.00 0.02 0.00 64 1013.1
20170722145228 89 208 1.0 4.0 0.00 0.02 0.00 67 1013.3
20170722143420 87 190 0.0 4.0 0.00 0.02 0.00 71 1013.4
20170722141921 85 230 0.0 6.0 0.00 0.02 0.00 73 1013.5
20170722140416 84 206 1.0 5.0 0.00 0.02 0.00 74 1013.2
20170722135213 83 191 0.0 6.0 0.00 0.02 0.00 77 1013.2
20170722133411 82 155 2.0 4.0 0.00 0.02 0.00 77 1013.1
20170722131909 81 209 1.0 5.0 0.00 0.02 0.00 79 1012.9
20170722130415 80 208 0.0 3.0 0.00 0.02 0.00 81 1012.8
20170722125209 80 155 0.0 3.0 0.00 0.02 0.00 81 1012.8
20170722123409 79 235 0.0 1.0 0.00 0.02 0.00 81 1012.8
20170722121909 79 225 0.0 0.0 0.00 0.02 0.00 83 1012.6
20170722120409 78 225 0.0 1.0 0.00 0.02 0.00 82 1012.5
20170722115207 78 225 0.0 2.0 0.00 0.02 0.00 82 1012.4
20170722113404 78 225 0.0 1.0 0.00 0.02 0.00 82 1012.4
20170722111905 79 225 0.0 2.0 0.00 0.02 0.00 81 1012.4
20170722110410 79 212 0.0 3.0 0.00 0.02 0.00 80 1012.2
20170722105207 80 211 2.0 5.0 0.00 0.02 0.00 79 1012.1
20170722103415 80 239 0.0 3.0 0.00 0.02 0.00 79 1012.2
20170722101905 80 210 1.0 3.0 0.00 0.02 0.00 78 1012.2
20170722100407 81 211 1.0 3.0 0.00 0.02 0.00 77 1012.2
20170722095205 81 214 2.0 5.0 0.00 0.02 0.00 77 1012.0
20170722093402 81 186 1.0 5.0 0.00 0.02 0.00 76 1011.9
20170722091904 82 251 2.0 6.0 0.00 0.02 0.00 75 1012.0
20170722090359 82 195 1.0 6.0 0.00 0.02 0.00 75 1012.0
20170722085158 82 225 1.0 4.0 0.00 0.02 0.00 74 1012.2
20170722083358 82 211 0.0 4.0 0.00 0.02 0.00 74 1012.3
20170722081858 82 238 1.0 5.0 0.00 0.02 0.00 73 1012.3
20170722080355 82 219 0.0 4.0 0.00 0.02 0.00 74 1012.3
20170722075159 82 232 0.0 2.0 0.00 0.02 0.00 74 1012.4
20170722073354 82 242 0.0 2.0 0.00 0.02 0.00 75 1012.5
20170722071852 82 231 0.0 2.0 0.00 0.02 0.00 76 1012.6
20170722070351 81 166 0.0 1.0 0.00 0.02 0.00 79 1012.8
20170722065150 80 212 0.0 0.0 0.00 0.02 0.00 79 1012.8